User: anonymous   Login
Location: Unspecified
(0.0000°N, 0.0000°E)
Time: 05:30:24
(UTC+02:00)
Language:

ARIANE 44L R/B - Orbit

View from above orbital plane
View from above orbital plane
View from above satellite
View from above satellite

Ground track
Ground track

The orbit data is extracted from the following two-line orbital elements,

1 26901U 01039B   16209.79422827  .00005441  00000-0  10744-2 0  9992
2 26901   7.3170 296.0114 6914080  20.2035 357.2373  2.76025155134574
Epoch (UTC): 27 July 2016 19:03:41
Eccentricity: 0.6914080
inclination: 7.3170°
perigee height: 246 km
apogee height: 29931 km
right ascension of ascending node: 296.0114°
argument of perigee: 20.2035°
revolutions per day: 2.76025155
mean anomaly at epoch: 357.2373°
orbit number at epoch: 13457

The dashed part of the orbit path shows where the satellite is in the earth's shadow,  

DLR